TimeCST,TemperatureF,Dew PointF,Humidity,Sea Level PressureIn,VisibilityMPH,Wind Direction,Wind SpeedMPH,Gust SpeedMPH,PrecipitationIn,Events,Conditions,WindDirDegrees,DateUTC
12:15 AM,21.9,14.0,72,29.89,10.0,Calm,Calm,-,N/A,,Overcast,0,2013-12-21 06:15:00
12:35 AM,21.9,14.0,72,29.88,10.0,SSW,3.5,-,N/A,,Overcast,210,2013-12-21 06:35:00
12:55 AM,22.1,14.2,72,29.87,10.0,SSW,3.5,-,N/A,,Overcast,200,2013-12-21 06:55:00
1:15 AM,22.1,14.7,73,29.85,10.0,Calm,Calm,-,N/A,,Overcast,0,2013-12-21 07:15:00
1:35 AM,22.1,14.7,73,29.82,10.0,Calm,Calm,-,N/A,,Overcast,0,2013-12-21 07:35:00
1:55 AM,22.1,14.9,74,29.82,10.0,Calm,Calm,-,N/A,,Overcast,0,2013-12-21 07:55:00
2:15 AM,22.1,14.7,73,29.81,10.0,Calm,Calm,-,N/A,,Overcast,0,2013-12-21 08:15:00
2:35 AM,22.1,14.9,74,29.79,10.0,Calm,Calm,-,N/A,,Overcast,0,2013-12-21 08:35:00
2:55 AM,22.1,15.4,76,29.79,10.0,Calm,Calm,-,N/A,,Overcast,0,2013-12-21 08:55:00
3:15 AM,22.1,15.4,76,29.78,10.0,Calm,Calm,-,N/A,,Overcast,0,2013-12-21 09:15:00
3:35 AM,22.1,15.4,76,29.78,10.0,Calm,Calm,-,N/A,,Mostly Cloudy,0,2013-12-21 09:35:00
3:55 AM,21.7,15.4,77,29.80,10.0,Calm,Calm,-,N/A,,Scattered Clouds,0,2013-12-21 09:55:00
4:15 AM,21.7,15.6,77,29.80,10.0,Calm,Calm,-,N/A,,Clear,0,2013-12-21 10:15:00
4:35 AM,21.2,15.8,80,29.81,10.0,Calm,Calm,-,N/A,,Clear,0,2013-12-21 10:35:00
4:55 AM,21.0,15.6,80,29.79,10.0,Calm,Calm,-,N/A,,Clear,0,2013-12-21 10:55:00
5:15 AM,20.1,15.6,83,29.76,7.0,Calm,Calm,-,N/A,,Clear,0,2013-12-21 11:15:00
5:35 AM,20.3,16.2,84,29.77,7.0,Calm,Calm,-,N/A,,Clear,0,2013-12-21 11:35:00
5:55 AM,20.3,16.0,83,29.80,7.0,Calm,Calm,-,N/A,,Clear,0,2013-12-21 11:55:00
6:15 AM,20.8,16.2,82,29.81,10.0,Calm,Calm,-,N/A,,Clear,0,2013-12-21 12:15:00
6:35 AM,20.8,16.2,82,29.81,7.0,Calm,Calm,-,N/A,,Clear,0,2013-12-21 12:35:00
6:55 AM,20.3,16.2,84,29.79,7.0,Calm,Calm,-,N/A,,Clear,0,2013-12-21 12:55:00
7:15 AM,20.7,16.2,83,29.81,7.0,Calm,Calm,-,N/A,,Clear,0,2013-12-21 13:15:00
7:35 AM,20.3,16.3,85,29.82,7.0,Calm,Calm,-,N/A,,Clear,0,2013-12-21 13:35:00
7:55 AM,20.7,16.7,85,29.81,7.0,Calm,Calm,-,N/A,,Scattered Clouds,0,2013-12-21 13:55:00
8:15 AM,21.2,16.9,83,29.81,7.0,Calm,Calm,-,N/A,,Mostly Cloudy,0,2013-12-21 14:15:00
8:35 AM,21.7,16.7,81,29.82,7.0,Calm,Calm,-,N/A,,Overcast,0,2013-12-21 14:35:00
8:55 AM,22.1,16.9,80,29.79,7.0,Calm,Calm,-,N/A,,Scattered Clouds,0,2013-12-21 14:55:00
9:15 AM,22.5,16.9,79,29.83,7.0,Calm,Calm,-,N/A,,Clear,0,2013-12-21 15:15:00
9:35 AM,22.8,16.9,78,29.80,7.0,ENE,3.5,-,N/A,,Scattered Clouds,60,2013-12-21 15:35:00
9:55 AM,23.0,16.3,76,29.81,7.0,Calm,Calm,-,N/A,,Scattered Clouds,0,2013-12-21 15:55:00
10:15 AM,23.7,16.5,74,29.83,7.0,ENE,3.5,-,N/A,,Clear,60,2013-12-21 16:15:00
10:35 AM,24.1,16.2,72,29.81,7.0,NE,3.5,-,N/A,,Clear,50,2013-12-21 16:35:00
10:55 AM,25.0,16.2,69,29.81,10.0,East,4.6,-,N/A,,Clear,90,2013-12-21 16:55:00
11:15 AM,25.2,15.6,67,29.80,10.0,ENE,6.9,-,N/A,,Clear,70,2013-12-21 17:15:00
11:35 AM,26.1,15.8,65,29.80,10.0,ENE,8.1,-,N/A,,Clear,60,2013-12-21 17:35:00
11:55 AM,26.4,15.1,62,29.80,10.0,East,6.9,-,N/A,,Clear,80,2013-12-21 17:55:00
12:15 PM,26.8,15.6,63,29.77,10.0,ENE,6.9,-,N/A,,Clear,60,2013-12-21 18:15:00
12:35 PM,27.5,16.2,62,29.77,10.0,ENE,6.9,-,N/A,,Clear,70,2013-12-21 18:35:00
12:55 PM,27.5,16.9,64,29.77,10.0,ENE,6.9,-,N/A,,Clear,60,2013-12-21 18:55:00
1:15 PM,28.0,17.1,63,29.76,10.0,ENE,6.9,-,N/A,,Clear,60,2013-12-21 19:15:00
1:35 PM,28.0,17.1,63,29.76,10.0,ENE,8.1,-,N/A,,Scattered Clouds,70,2013-12-21 19:35:00
1:55 PM,28.2,17.4,64,29.74,10.0,ENE,8.1,-,N/A,,Scattered Clouds,70,2013-12-21 19:55:00
2:15 PM,28.2,18.0,65,29.73,10.0,ENE,9.2,-,N/A,,Scattered Clouds,60,2013-12-21 20:15:00
2:35 PM,28.4,18.3,66,29.75,10.0,ENE,9.2,-,N/A,,Scattered Clouds,60,2013-12-21 20:35:00
2:55 PM,28.4,18.1,65,29.75,10.0,ENE,6.9,-,N/A,,Clear,60,2013-12-21 20:55:00
3:15 PM,28.2,18.1,66,29.72,10.0,NE,10.4,-,N/A,,Scattered Clouds,40,2013-12-21 21:15:00
3:35 PM,28.2,18.5,67,29.73,10.0,NE,9.2,-,N/A,,Scattered Clouds,40,2013-12-21 21:35:00
3:55 PM,28.0,18.5,67,29.76,10.0,NNE,9.2,-,N/A,,Scattered Clouds,30,2013-12-21 21:55:00
4:15 PM,27.9,18.3,67,29.74,10.0,NNE,10.4,-,N/A,,Scattered Clouds,30,2013-12-21 22:15:00
4:35 PM,27.5,18.5,69,29.75,10.0,NNE,8.1,-,N/A,,Overcast,30,2013-12-21 22:35:00
4:55 PM,27.3,17.8,67,29.76,10.0,NE,10.4,-,N/A,,Overcast,40,2013-12-21 22:55:00
5:15 PM,27.0,17.2,67,29.76,10.0,NNE,9.2,-,N/A,,Mostly Cloudy,30,2013-12-21 23:15:00
5:35 PM,26.6,16.9,67,29.75,10.0,NNE,12.7,16.1,N/A,,Mostly Cloudy,30,2013-12-21 23:35:00
6:00 PM,26.6,16.2,65,29.74,10.0,NNE,13.8,-,N/A,,Overcast,20,2013-12-22 00:00:00
6:15 PM,26.4,16.0,65,29.75,10.0,NE,11.5,-,N/A,,Overcast,40,2013-12-22 00:15:00
6:35 PM,26.4,16.2,65,29.75,10.0,NNE,12.7,18.4,N/A,,Overcast,30,2013-12-22 00:35:00
6:55 PM,26.2,16.3,66,29.76,10.0,NE,13.8,18.4,N/A,,Overcast,40,2013-12-22 00:55:00
7:15 PM,25.7,16.7,69,29.77,10.0,NNE,13.8,19.6,N/A,,Overcast,30,2013-12-22 01:15:00
7:35 PM,25.5,17.2,71,29.77,10.0,NNE,10.4,-,N/A,,Overcast,20,2013-12-22 01:35:00
7:55 PM,25.2,17.2,72,29.78,10.0,NNE,12.7,-,N/A,,Overcast,30,2013-12-22 01:55:00
8:15 PM,25.2,17.4,72,29.78,10.0,NNE,12.7,19.6,N/A,,Overcast,30,2013-12-22 02:15:00
8:35 PM,25.0,17.4,73,29.77,10.0,NNE,15.0,21.9,N/A,,Overcast,20,2013-12-22 02:35:00
8:55 PM,25.0,17.6,74,29.76,10.0,NNE,15.0,18.4,N/A,,Overcast,30,2013-12-22 02:55:00
9:15 PM,25.0,17.4,73,29.77,10.0,NNE,13.8,23.0,N/A,,Overcast,30,2013-12-22 03:15:00
9:35 PM,24.8,17.4,74,29.78,10.0,NNE,9.2,-,N/A,,Overcast,20,2013-12-22 03:35:00
9:55 PM,25.2,16.9,71,29.80,10.0,NNE,11.5,17.3,N/A,,Overcast,20,2013-12-22 03:55:00
10:15 PM,25.3,16.7,70,29.82,10.0,NNE,11.5,-,N/A,,Overcast,20,2013-12-22 04:15:00
10:35 PM,25.3,16.7,70,29.83,10.0,NNE,13.8,-,N/A,,Overcast,20,2013-12-22 04:35:00
10:55 PM,25.0,17.8,74,29.84,3.0,NNE,12.7,-,N/A,Snow,Light Snow,20,2013-12-22 04:55:00
11:15 PM,24.8,18.1,76,29.85,4.0,North,10.4,18.4,N/A,Snow,Light Snow,10,2013-12-22 05:15:00
11:35 PM,24.8,17.2,73,29.86,10.0,North,13.8,23.0,N/A,,Overcast,10,2013-12-22 05:35:00
11:55 PM,24.6,16.7,72,29.87,10.0,North,11.5,20.7,N/A,,Overcast,10,2013-12-22 05:55:00